�N����,����,�g�[���i���ԁj���x,�g�[�����x,��g�[���i���ցj���x,����
 2004/03/01, 0:00,18.4,53,9.8,9.7
 2004/03/01, 0:15,17.3,55,9.7,9.7
 2004/03/01, 0:30,16.2,50,10,9.6
 2004/03/01, 0:45,15.1,54,10.3,9.6
 2004/03/01, 1:00,15.1,56,10.1,9.7
 2004/03/01, 1:15,14.9,56.5,10,9.7
 2004/03/01, 1:30,14.6,58,9.9,9.7
 2004/03/01, 1:45,14.4,59,9.9,9.7
 2004/03/01, 2:00,14.1,60,9.8,9.7
 2004/03/01, 2:15,13.9,60,9.7,9.7
 2004/03/01, 2:30,13.7,61,9.7,9.7
 2004/03/01, 2:45,13.5,61,9.6,9.7
 2004/03/01, 3:00,13.4,61,9.5,9.7
 2004/03/01, 3:15,13.2,62,9.4,9.7
 2004/03/01, 3:30,13.1,62,9.4,9.7
 2004/03/01, 3:45,12.9,62,9.4,9.7
 2004/03/01, 4:00,12.8,63,9.3,9.7
 2004/03/01, 4:15,12.8,63,9.3,9.7
 2004/03/01, 4:30,12.6,63,9.3,9.7
 2004/03/01, 4:45,12.6,62.5,9.2,9.7
 2004/03/01, 5:00,12.4,63,9.1,9.7
 2004/03/01, 5:15,12.2,63,9.1,9.7
 2004/03/01, 5:30,12.2,63,9,9.7
 2004/03/01, 5:45,12.1,63,9.1,9.7
 2004/03/01, 6:00,12,63,8.9,9.7
 2004/03/01, 6:15,11.9,62,8.9,9.7
 2004/03/01, 6:30,11.6,61,9.1,9.7
 2004/03/01, 6:45,11.6,61.5,9.1,9.9
 2004/03/01, 7:00,12.2,69,9,9.8
 2004/03/01, 7:15,16.5,54.5,8.9,9.5
 2004/03/01, 7:30,18.9,49,8.9,9.5
 2004/03/01, 7:45,17.5,50.5,8.8,9.4
 2004/03/01, 8:00,14.2,57,8.7,9.3
 2004/03/01, 8:15,13.4,60.5,8.8,9.3
 2004/03/01, 8:30,13.1,66,8.8,9.3
 2004/03/01, 8:45,12.8,64.5,8.7,9.3
 2004/03/01, 9:00,12.6,64,8.7,9.3
 2004/03/01, 9:15,12.6,64.5,8.7,9.2
 2004/03/01, 9:30,13.2,63,8.7,9.2
 2004/03/01, 9:45,13.6,59,8.8,9.2
 2004/03/01,10:00,13.9,58,8.7,9.2
 2004/03/01,10:15,14.1,57.5,8.6,9.2
 2004/03/01,10:30,13.7,54,8.8,9.2
 2004/03/01,10:45,13.5,54,9.2,9.2
 2004/03/01,11:00,13.4,54,9.3,9.2
 2004/03/01,11:15,13.2,54,8.1,9.2
 2004/03/01,11:30,13.1,51,8.5,9.2
 2004/03/01,11:45,13.2,53.5,9.3,9.3
 2004/03/01,12:00,13.3,54,9.6,9.2
 2004/03/01,12:15,14.2,52.5,9.5,9.3
 2004/03/01,12:30,14.9,55,9.4,9.3
 2004/03/01,12:45,15.3,59,9.6,9.3
 2004/03/01,13:00,14.6,57,9.6,9.3
 2004/03/01,13:15,16.5,58,9.6,9.3
 2004/03/01,13:30,16.4,57,9.7,9.3
 2004/03/01,13:45,16.4,57,9.6,9.3
 2004/03/01,14:00,16.6,56,9.7,9.3
 2004/03/01,14:15,16.5,56,9.7,9.3
 2004/03/01,14:30,16.5,56,9.8,9.3
 2004/03/01,14:45,16.5,55.5,9.8,9.4
 2004/03/01,15:00,16.6,54,9.8,9.4
 2004/03/01,15:15,16.2,51.5,11.1,9.4
 2004/03/01,15:30,15.2,51,11.5,9.4
 2004/03/01,15:45,13.6,44.5,9.6,9.7
 2004/03/01,16:00,13.9,50,10.6,9.7
 2004/03/01,16:15,14,52.5,10.7,9.7
 2004/03/01,16:30,14,59,10.8,9.7
 2004/03/01,16:45,13.9,56.5,10.4,9.7
 2004/03/01,17:00,13.4,53,8.6,9.7
 2004/03/01,17:15,12.9,49,9.7,9.6
 2004/03/01,17:30,13.1,54,9.7,9.6
 2004/03/01,17:45,13.1,55.5,9.6,9.5
 2004/03/01,18:00,13.2,57,9.5,9.5
 2004/03/01,18:15,13.1,58.5,9.4,9.4
 2004/03/01,18:30,13.5,65,9.4,9.3
 2004/03/01,18:45,13.4,54,9.5,9.3
 2004/03/01,19:00,14.8,57,9.3,9.3
 2004/03/01,19:15,15.4,57.5,9.1,9.3
 2004/03/01,19:30,15.3,55,9,9.3
 2004/03/01,19:45,15.9,59.5,8.9,9.3
 2004/03/01,20:00,16,60,8.9,9.3
 2004/03/01,20:15,15.8,59,8.9,9.2
 2004/03/01,20:30,15.8,58,8.9,9.1
 2004/03/01,20:45,15.9,57.5,8.9,9.1
 2004/03/01,21:00,15.5,60,8.9,9.2
 2004/03/01,21:15,17.6,58,8.9,9.3
 2004/03/01,21:30,20.8,47,8.7,9.4
 2004/03/01,21:45,21.5,44,8.7,9.4
 2004/03/01,22:00,22.1,42,8.6,9.4
 2004/03/01,22:15,22.4,40.5,8.6,9.4
 2004/03/01,22:30,22.6,40,8.5,9.4
 2004/03/01,22:45,22.8,39,8.5,9.1
 2004/03/01,23:00,18.9,45,8.6,9.1
 2004/03/01,23:15,17,49,8.4,9.4
 2004/03/01,23:30,16.1,52,8.4,9.4
 2004/03/01,23:45,15.5,53,8.2,9.3
 2004/03/02, 0:00,15.1,54,8.2,9.3
 2004/03/02, 0:15,14.6,55.5,8.1,9.3
 2004/03/02, 0:30,14.3,56,8.1,9.3
 2004/03/02, 0:45,14,56,7.9,9.3
 2004/03/02, 1:00,13.7,56,7.8,9.3
 2004/03/02, 1:15,13.6,57,7.7,9.2
 2004/03/02, 1:30,13.4,57,7.6,9.2
 2004/03/02, 1:45,13.1,57.5,7.5,9.2
 2004/03/02, 2:00,13,57,7.5,9.2
 2004/03/02, 2:15,12.8,57,7.3,9.1
 2004/03/02, 2:30,12.6,58,7.3,9.1
 2004/03/02, 2:45,12.6,57.5,7.2,9.1
 2004/03/02, 3:00,12.6,57,7.2,9.1
 2004/03/02, 3:15,12.5,57,7,9
 2004/03/02, 3:30,12.2,58,7,9
 2004/03/02, 3:45,12.1,58,6.8,9
 2004/03/02, 4:00,11.3,56,7.1,8.9
 2004/03/02, 4:15,11.2,56,7.1,8.9
 2004/03/02, 4:30,11.4,56,6.8,9.1
 2004/03/02, 4:45,11.4,56,6.7,9.1
 2004/03/02, 5:00,11.4,56,6.7,9
 2004/03/02, 5:15,11.3,57,6.5,9
 2004/03/02, 5:30,11.2,57,6.5,9
 2004/03/02, 5:45,11.1,57,6.4,8.9
 2004/03/02, 6:00,10.9,58,6.4,8.9
 2004/03/02, 6:15,10.9,57.5,6.3,8.9
 2004/03/02, 6:30,10.7,58,6.2,8.9
 2004/03/02, 6:45,10.8,58.5,6.2,8.8
 2004/03/02, 7:00,10.2,57,6.6,8.5
 2004/03/02, 7:15,13.7,49,6.4,8.9
 2004/03/02, 7:30,14.5,44,6.4,8.8
 2004/03/02, 7:45,17,40,6.4,8.9
 2004/03/02, 8:00,16.6,42,6.5,8.9
 2004/03/02, 8:15,12.9,52,6.5,8.8
 2004/03/02, 8:30,11.3,52,6.8,8.7
 2004/03/02, 8:45,11,54.5,7.3,8.6
 2004/03/02, 9:00,10.5,56,7.3,8.8
 2004/03/02, 9:15,10.9,60,7.3,8.8
 2004/03/02, 9:30,11,58,7.5,9.1
 2004/03/02, 9:45,11,57,7.8,9
 2004/03/02,10:00,10.8,56,8.2,9.1
 2004/03/02,10:15,10.6,57.5,8.1,8.9
 2004/03/02,10:30,10.7,58,8.1,9.2
 2004/03/02,10:45,11.4,57,8.1,9.1
 2004/03/02,11:00,11.9,55,8.2,9.1
 2004/03/02,11:15,12.1,54,8.3,9.1
 2004/03/02,11:30,12.5,54,8.4,8.6
 2004/03/02,11:45,12.2,52.5,8.5,9.1
 2004/03/02,12:00,12.2,52,8.6,9.1
 2004/03/02,12:15,11.8,52.5,8.6,9.2
 2004/03/02,12:30,11.2,54,8.7,9.4
 2004/03/02,12:45,11.3,55.5,8.6,9.4
 2004/03/02,13:00,12.1,62,8.6,9.4
 2004/03/02,13:15,12.8,68,8.6,9.4
 2004/03/02,13:30,13.9,65,8.6,9.3
 2004/03/02,13:45,15,58,8.7,9.3
 2004/03/02,14:00,15.8,54,8.8,9.3
 2004/03/02,14:15,16.2,52.5,8.8,9.3
 2004/03/02,14:30,16.8,51,8.8,9.3
 2004/03/02,14:45,16.9,50,8.9,9.3
 2004/03/02,15:00,17,49,8.9,9.3
 2004/03/02,15:15,16.1,49,8.9,9.3
 2004/03/02,15:30,14.9,52,8.9,9.5
 2004/03/02,15:45,14.2,55,9,9.8
 2004/03/02,16:00,13.8,57,9,9.7
 2004/03/02,16:15,13.5,58.5,9,9.7
 2004/03/02,16:30,13.2,60,8.9,9.7
 2004/03/02,16:45,12.9,59.5,8.9,9.7
 2004/03/02,17:00,12.7,59,8.9,9.7
 2004/03/02,17:15,12.6,59.5,8.9,9.7
 2004/03/02,17:30,12.6,59,8.8,9.7
 2004/03/02,17:45,12.4,59,8.8,9.7
 2004/03/02,18:00,12.4,58,8.7,9.2
 2004/03/02,18:15,12.3,59,8.6,9.2
 2004/03/02,18:30,12.9,58,8.5,9.2
 2004/03/02,18:45,13.6,56,8.4,9.2
 2004/03/02,19:00,13.7,56,8.2,9.2
 2004/03/02,19:15,13.1,50.5,8.1,9.2
 2004/03/02,19:30,14.5,55,8.1,9.2
 2004/03/02,19:45,14.5,55,8.1,9.2
 2004/03/02,20:00,14.5,55,8,9.3
 2004/03/02,20:15,14.6,55,7.8,9.3
 2004/03/02,20:30,14.5,56,7.8,9
 2004/03/02,20:45,14.4,56.5,7.7,9.2
 2004/03/02,21:00,14.4,56,7.6,9.2
 2004/03/02,21:15,14.4,56,7.6,9.2
 2004/03/02,21:30,14.6,56,7.5,9.2
 2004/03/02,21:45,14.6,57,7.4,8.9
 2004/03/02,22:00,14.4,56,7.4,8.9
 2004/03/02,22:15,13.6,58.5,7.3,8.9
 2004/03/02,22:30,12.9,60,7.3,8.9
 2004/03/02,22:45,15.7,51,7.3,8.9
 2004/03/02,23:00,18.9,45,7.2,9.2
 2004/03/02,23:15,19.5,42.5,7.2,9.1
 2004/03/02,23:30,20.1,41,7.2,9.1
 2004/03/02,23:45,20.4,41.5,7,9.1
 2004/03/03, 0:00,20.6,43,7,9
 2004/03/03, 0:15,16.8,46,7.2,9
 2004/03/03, 0:30,14.4,50,7.2,9.2
 2004/03/03, 0:45,13.4,51.5,7.2,9.2
 2004/03/03, 1:00,12.8,52,7.2,9.2
 2004/03/03, 1:15,12.4,53,7.2,9.1
 2004/03/03, 1:30,12,53,7.1,9.1
 2004/03/03, 1:45,11.6,53,7.1,9.1
 2004/03/03, 2:00,11.3,54,7,9
 2004/03/03, 2:15,11,54,7,9
 2004/03/03, 2:30,10.7,54,6.8,9
 2004/03/03, 2:45,10.6,54,6.9,8.9
 2004/03/03, 3:00,10.4,54,6.8,8.9
 2004/03/03, 3:15,10.1,54.5,6.7,8.9
 2004/03/03, 3:30,9.9,55,6.7,8.9
 2004/03/03, 3:45,9.8,55,6.6,8.8
 2004/03/03, 4:00,9.6,55,6.6,8.8
 2004/03/03, 4:15,9.5,55,6.6,8.8
 2004/03/03, 4:30,9.3,56,6.6,8.8
 2004/03/03, 4:45,9.1,56,6.4,8.7
 2004/03/03, 5:00,9,56,6.4,8.7
 2004/03/03, 5:15,8.9,56,6.4,8.7
 2004/03/03, 5:30,8.8,56,6.4,8.6
 2004/03/03, 5:45,8.7,56,6.3,8.6
 2004/03/03, 6:00,8.6,56,6.2,8.6
 2004/03/03, 6:15,8.5,57,6.2,8.6
 2004/03/03, 6:30,8.5,57,6.1,8.5
 2004/03/03, 6:45,8.4,57.5,6.2,8.5
 2004/03/03, 7:00,8.4,58,6.1,8.5
 2004/03/03, 7:15,10.7,52.5,6.2,8.4
 2004/03/03, 7:30,15.1,44,6,9
 2004/03/03, 7:45,16.4,41,6.2,8.9
 2004/03/03, 8:00,13.9,42,6.5,9.1
 2004/03/03, 8:15,11.6,46.5,6.7,8.9
 2004/03/03, 8:30,10.8,50,6.7,8.9
 2004/03/03, 8:45,10.1,51.5,6.6,8.8
 2004/03/03, 9:00,10.2,60,6.8,8.6
 2004/03/03, 9:15,10.2,65,6.9,8.6
 2004/03/03, 9:30,9.5,52,6.9,8.5
 2004/03/03, 9:45,9.6,62,6.9,8.6
 2004/03/03,10:00,9.6,61,6.9,8.8
 2004/03/03,10:15,9.4,61,6.9,8.7
 2004/03/03,10:30,9.4,61,6.9,8.7
 2004/03/03,10:45,9.4,61,6.9,8.6
 2004/03/03,11:00,9.6,65,7,8.6
 2004/03/03,11:15,10.2,73,7.1,8.6
 2004/03/03,11:30,11.2,73,7.2,8.5
 2004/03/03,11:45,11.9,69.5,7.2,8.5
 2004/03/03,12:00,15.1,54,7.2,8.4
 2004/03/03,12:15,18.4,45.5,7.3,8.4
 2004/03/03,12:30,16.3,52,7.3,8.4
 2004/03/03,12:45,14.8,55.5,7.5,8.4
 2004/03/03,13:00,14.5,56,7.5,8.4
 2004/03/03,13:15,14.6,56,7.5,8.4
 2004/03/03,13:30,14.6,56,7.5,8.3
 2004/03/03,13:45,14.5,55,7.5,8.3
 2004/03/03,14:00,14.4,55,7.5,8.3
 2004/03/03,14:15,14.4,55,7.5,8.3
 2004/03/03,14:30,14.1,54,8,8.3
 2004/03/03,14:45,13.7,54.5,7.8,8.3
 2004/03/03,15:00,13.9,55,7.6,8.3
 2004/03/03,15:15,13.6,55,7.6,8.3
 2004/03/03,15:30,13.4,56,7.6,8.6
 2004/03/03,15:45,13.4,56,7.5,8.6
 2004/03/03,16:00,13.5,55,7.5,8.1
 2004/03/03,16:15,13.6,54.5,7.4,8.8
 2004/03/03,16:30,13.6,54,7.4,8.8
 2004/03/03,16:45,13.6,53.5,7.3,8.8
 2004/03/03,17:00,13.4,54,7.3,8.8
 2004/03/03,17:15,13.6,54.5,7.3,8.8
 2004/03/03,17:30,13.5,54,7.2,8.8
 2004/03/03,17:45,13.6,54,7.2,8.8
 2004/03/03,18:00,13.2,53,7.4,8.8
 2004/03/03,18:15,12.9,52.5,7.6,8.8
 2004/03/03,18:30,12.4,51,7.5,8.8
 2004/03/03,18:45,12.1,51,7.3,8.8
 2004/03/03,19:00,13.4,53,7.2,8.8
 2004/03/03,19:15,13.8,55.5,7.3,8.8
 2004/03/03,19:30,13.7,56,7.2,8.8
 2004/03/03,19:45,13.6,56,7.2,8.8
 2004/03/03,20:00,13.7,57,7,8.8
 2004/03/03,20:15,13.1,58,7,8.8
 2004/03/03,20:30,12.5,60,6.9,8.9
 2004/03/03,20:45,12.1,60.5,6.9,8.9
 2004/03/03,21:00,11.7,61,6.8,8.8
 2004/03/03,21:15,11.4,61.5,6.7,8.8
 2004/03/03,21:30,11.2,63,6.6,8.8
 2004/03/03,21:45,11.1,63.5,6.6,8.8
 2004/03/03,22:00,10.7,64,6.4,8.7
 2004/03/03,22:15,10.7,64,6.5,8.2
 2004/03/03,22:30,10.6,65,6.4,8.6
 2004/03/03,22:45,10.6,64.5,6.2,8.6
 2004/03/03,23:00,10.4,64,6.2,8.5
 2004/03/03,23:15,10.2,65,6.1,8.5
 2004/03/03,23:30,10.1,65,6.1,8.5
 2004/03/03,23:45,10.1,65,6,8.4
 2004/03/04, 0:00,9.9,64,5.9,8.4
 2004/03/04, 0:15,9.8,63,5.9,8.4
 2004/03/04, 0:30,9.7,64,6,8.4
 2004/03/04, 0:45,9.6,65,5.9,8.4
 2004/03/04, 1:00,9.5,65,5.9,8.4
 2004/03/04, 1:15,9.5,65,5.8,8.4
 2004/03/04, 1:30,9.5,65,5.8,8.4
 2004/03/04, 1:45,9.4,66,5.8,8.4
 2004/03/04, 2:00,9.4,66,5.7,8.3
 2004/03/04, 2:15,9.3,66,5.7,8.3
 2004/03/04, 2:30,9.3,66,5.7,8.3
 2004/03/04, 2:45,9.3,66.5,5.6,8.3
 2004/03/04, 3:00,9.4,65,5.7,8.2
 2004/03/04, 3:15,9.1,65,5.7,9.2
 2004/03/04, 3:30,8.9,65,5.6,9.1
 2004/03/04, 3:45,8.8,65,5.6,9.1
 2004/03/04, 4:00,8.6,65,5.6,9
 2004/03/04, 4:15,8.5,65,5.6,8.9
 2004/03/04, 4:30,8.4,65,5.6,8.9
 2004/03/04, 4:45,8.3,65,5.5,8.9
 2004/03/04, 5:00,8.3,65,5.5,8.8
 2004/03/04, 5:15,8.1,65,5.5,8.8
 2004/03/04, 5:30,8,65,5.5,8.7
 2004/03/04, 5:45,7.9,65,5.5,8.6
 2004/03/04, 6:00,7.9,65,5.5,8.6
 2004/03/04, 6:15,7.7,65,5.4,8.5
 2004/03/04, 6:30,7.7,65,5.5,8.5
 2004/03/04, 6:45,8.2,64.5,5.5,8.5
 2004/03/04, 7:00,13.3,50,5.5,8.5
 2004/03/04, 7:15,14.1,46.5,5.6,8.4
 2004/03/04, 7:30,16.6,47,5.9,8.9
 2004/03/04, 7:45,13.1,56.5,6.1,8.9
 2004/03/04, 8:00,11.4,62,6.1,8.9
 2004/03/04, 8:15,10.9,61,6.2,8.6
 2004/03/04, 8:30,10.2,58,6.6,8.6
 2004/03/04, 8:45,10.6,59,6.7,8.6
 2004/03/04, 9:00,11.3,57,7.6,8.5
 2004/03/04, 9:15,11.2,51.5,8.2,8.5
 2004/03/04, 9:30,11.5,51,8.1,8.4
 2004/03/04, 9:45,11.6,50.5,7.8,8.4
 2004/03/04,10:00,11.8,51,7.5,8.7
 2004/03/04,10:15,11.2,51,7.8,8.7
 2004/03/04,10:30,11.5,49,7.8,8.7
 2004/03/04,10:45,11.6,47.5,7.5,8.6
 2004/03/04,11:00,11.8,46,7.5,8.6
 2004/03/04,11:15,11.6,46,8.4,8.6
 2004/03/04,11:30,11.3,46,8.4,8.6
 2004/03/04,11:45,15.9,37,7.8,8.3
 2004/03/04,12:00,17.9,35,7.6,8.6
 2004/03/04,12:15,19.4,32,7.7,8.8
 2004/03/04,12:30,20,30,7.7,8.8
 2004/03/04,12:45,20.8,29,7.8,8.8
 2004/03/04,13:00,21.5,29,7.8,8.8
 2004/03/04,13:15,22.2,30,7.8,8.8
 2004/03/04,13:30,22.7,30,7.9,8.8
 2004/03/04,13:45,23.1,29,8.1,8.8
 2004/03/04,14:00,23.7,29,8.1,8.8
 2004/03/04,14:15,23.8,29,8.1,8.8
 2004/03/04,14:30,24.4,30,8.2,8.8
 2004/03/04,14:45,24,30.5,8.2,8.8
 2004/03/04,15:00,24,30,8.2,8.8
 2004/03/04,15:15,20.3,36.5,8.2,9.1
 2004/03/04,15:30,18.7,39,8.4,9.3
 2004/03/04,15:45,17.1,41.5,8.2,9.3
 2004/03/04,16:00,16.3,42,8.4,9.4
 2004/03/04,16:15,15.9,43.5,8.3,9.4
 2004/03/04,16:30,15.3,45,8.3,9.4
 2004/03/04,16:45,15.1,45,8.4,9.3
 2004/03/04,17:00,15.6,44,8.2,9.3
 2004/03/04,17:15,15.8,44,8.1,9.3
 2004/03/04,17:30,15.5,45,7.9,9.3
 2004/03/04,17:45,15.3,45.5,7.9,9.3
 2004/03/04,18:00,15,44,8.1,9.2
 2004/03/04,18:15,15.4,44,7.9,9.2
 2004/03/04,18:30,15.7,46,7.8,9.2
 2004/03/04,18:45,15.6,52,7.7,9.1
 2004/03/04,19:00,14.1,46,7.6,9.1
 2004/03/04,19:15,15.2,44.5,7.4,9.1
 2004/03/04,19:30,15.3,50,7.3,9
 2004/03/04,19:45,15.4,51,7.2,9
 2004/03/04,20:00,15,50,7.2,9
 2004/03/04,20:15,15.8,55,7.2,9
 2004/03/04,20:30,15.3,52,7,9
 2004/03/04,20:45,14.9,51.5,6.9,9
 2004/03/04,21:00,14.6,52,6.9,8.9
 2004/03/04,21:15,14.6,50.5,6.8,8.9
 2004/03/04,21:30,13.9,52,6.7,8.4
 2004/03/04,21:45,13.2,53,6.7,8.5
 2004/03/04,22:00,12.8,53,6.6,8.4
 2004/03/04,22:15,12.4,54,6.6,9
 2004/03/04,22:30,12,55,6.4,9
 2004/03/04,22:45,11.9,55.5,6.3,8.9
 2004/03/04,23:00,14.1,48,6.3,8.9
 2004/03/04,23:15,17.7,43,6.2,8.9
 2004/03/04,23:30,18.6,41,6.2,8.8
 2004/03/04,23:45,18.9,40.5,6.2,8.8
 2004/03/05, 0:00,19.4,40,6.1,8.8
 2004/03/05, 0:15,16,46.5,6.2,8.8
 2004/03/05, 0:30,13.5,50,6.1,8.7
 2004/03/05, 0:45,12.7,51,6.2,8.6
 2004/03/05, 1:00,12.1,52,6.1,8.6
 2004/03/05, 1:15,11.6,53.5,6.1,8.6
 2004/03/05, 1:30,11.1,54,5.9,8.6
 2004/03/05, 1:45,10.8,54,5.9,8.5
 2004/03/05, 2:00,10.5,54,5.8,8.5
 2004/03/05, 2:15,10.1,54,5.8,8.4
 2004/03/05, 2:30,10,54,5.7,8.4
 2004/03/05, 2:45,9.8,55,5.7,8.4
 2004/03/05, 3:00,9.6,55,5.6,8.3
 2004/03/05, 3:15,9.3,56,5.6,8.3
 2004/03/05, 3:30,9.2,56,5.6,8.3
 2004/03/05, 3:45,9,56,5.4,8.2
 2004/03/05, 4:00,8.8,56,5.3,8.2
 2004/03/05, 4:15,8.6,56,5.3,8.1
 2004/03/05, 4:30,8.5,56,5.2,8.1
 2004/03/05, 4:45,8.2,56,5.2,8.1
 2004/03/05, 5:00,8.1,56,5.2,8.3
 2004/03/05, 5:15,8.1,56.5,5.1,8.2
 2004/03/05, 5:30,8,57,5,8.2
 2004/03/05, 5:45,7.9,57,4.9,8.1
 2004/03/05, 6:00,7.8,57,4.8,8.1
 2004/03/05, 6:15,7.8,57.5,4.8,8.1
 2004/03/05, 6:30,7.7,58,4.7,8.1
 2004/03/05, 6:45,7.5,58,4.8,8
 2004/03/05, 7:00,7.4,58,4.7,8
 2004/03/05, 7:15,8.8,54,4.8,8.2
 2004/03/05, 7:30,13.6,45,4.9,8.4
 2004/03/05, 7:45,15.1,43.5,5.2,8.7
 2004/03/05, 8:00,15,42,5.5,8.9
 2004/03/05, 8:15,12.7,50,5.6,8.7
 2004/03/05, 8:30,12.7,50,5.9,8.6
 2004/03/05, 8:45,12,47.5,7,8.5
 2004/03/05, 9:00,10.7,48,7.9,8.7
 2004/03/05, 9:15,10.2,49,8.1,8.6
 2004/03/05, 9:30,10.2,48,8.1,8.7
 2004/03/05, 9:45,10.1,48.5,7.9,8.7
 2004/03/05,10:00,10.4,51,7.6,8.7
 2004/03/05,10:15,11.1,51.5,7.6,8.6
 2004/03/05,10:30,11.6,50,7.5,8.6
 2004/03/05,10:45,11.9,48,7.4,8.6
 2004/03/05,11:00,12,47,7.5,8.5
 2004/03/05,11:15,12.2,49,7.5,8.5
 2004/03/05,11:30,12.6,50,7.5,8.5
 2004/03/05,11:45,12.8,49.5,7.6,8.4
 2004/03/05,12:00,12.7,49,7.5,8.4
 2004/03/05,12:15,12.9,48,7.6,8.4
 2004/03/05,12:30,13.1,46,7.6,8.4
 2004/03/05,12:45,13.1,45.5,7.7,8.4
 2004/03/05,13:00,14,44,7.8,8.9
 2004/03/05,13:15,19,32,7.9,8.9
 2004/03/05,13:30,20.7,30,8,8.9
 2004/03/05,13:45,16.8,38.5,8.1,8.9
 2004/03/05,14:00,16.1,39,8.1,8.9
 2004/03/05,14:15,15.6,39.5,8.1,8.9
 2004/03/05,14:30,14.8,41,8.1,8.8
 2004/03/05,14:45,14.4,42,8.2,8.8
 2004/03/05,15:00,14.4,42,8.2,8.8
 2004/03/05,15:15,14.4,43.5,8.4,8.8
 2004/03/05,15:30,14.4,45,8.4,8.8
 2004/03/05,15:45,14.4,45,8.4,8.8
 2004/03/05,16:00,14.4,45,8.5,8.8
 2004/03/05,16:15,14.1,44.5,8.5,8.6
 2004/03/05,16:30,14,44,8.5,8.6
 2004/03/05,16:45,13.9,44.5,8.6,8.6
 2004/03/05,17:00,15.4,54,8.7,8.7
 2004/03/05,17:15,14.4,49.5,8.6,8.7
 2004/03/05,17:30,14.2,52,8.5,8.7
 2004/03/05,17:45,14.9,50,8.4,8.7
 2004/03/05,18:00,15.3,49,8.3,8.7
 2004/03/05,18:15,14.9,48.5,8.2,8.6
 2004/03/05,18:30,14.4,50,8.2,9
 2004/03/05,18:45,14.6,48.5,8.1,9
 2004/03/05,19:00,15.3,50,7.9,9
 2004/03/05,19:15,15.4,50.5,7.8,8.9
 2004/03/05,19:30,15.4,51,7.6,8.7
 2004/03/05,19:45,15.4,51.5,7.6,8.7
 2004/03/05,20:00,15.3,51,7.5,8.7
 2004/03/05,20:15,15.1,51,7.3,8.7
 2004/03/05,20:30,14.8,51,7.3,8.7
 2004/03/05,20:45,13.9,53.5,7.2,8.7
 2004/03/05,21:00,13.4,55,7.1,8.7
 2004/03/05,21:15,13.1,55.5,7.1,8.7
 2004/03/05,21:30,12.8,56,7,8.7
 2004/03/05,21:45,12.5,56,6.9,8.6
 2004/03/05,22:00,12.5,56,6.9,8.4
 2004/03/05,22:15,12.3,54.5,7,8.5
 2004/03/05,22:30,12.3,55,6.9,8.5
 2004/03/05,22:45,16.4,49.5,6.9,8.5
 2004/03/05,23:00,19.2,46,6.9,8.4
 2004/03/05,23:15,20,43,6.9,8.4
 2004/03/05,23:30,20.2,41,6.9,8.4
 2004/03/05,23:45,20,41,6.9,8.4
 2004/03/06, 0:00,15.9,48,7.1,9
 2004/03/06, 0:15,14.6,51,7.1,9
 2004/03/06, 0:30,13.8,52,7.2,9
 2004/03/06, 0:45,13.2,52.5,7.1,9
 2004/03/06, 1:00,12.8,53,7,8.9
 2004/03/06, 1:15,12.6,54.5,7,8.9
 2004/03/06, 1:30,12.3,55,7.1,8.9
 2004/03/06, 1:45,12.1,55.5,7.1,8.9
 2004/03/06, 2:00,11.9,56,7.1,8.9
 2004/03/06, 2:15,11.8,57,7.1,8.8
 2004/03/06, 2:30,11.5,58,7.1,8.8
 2004/03/06, 2:45,11.5,57.5,7.1,8.8
 2004/03/06, 3:00,11.3,56,7.1,8.8
 2004/03/06, 3:15,11.2,57.5,7.1,8.8
 2004/03/06, 3:30,11.1,58,7.1,8.8
 2004/03/06, 3:45,11,59,7.1,8.8
 2004/03/06, 4:00,10.9,59,7.2,8.8
 2004/03/06, 4:15,10.9,59,7.2,8.8
 2004/03/06, 4:30,10.8,59,7.2,8.8
 2004/03/06, 4:45,10.6,59,7.2,8.8
 2004/03/06, 5:00,10.6,59,7.3,8.8
 2004/03/06, 5:15,10.6,58,7.2,8.8
 2004/03/06, 5:30,10.3,57,7.3,8.2
 2004/03/06, 5:45,10.3,56.5,7.2,8.7
 2004/03/06, 6:00,10.3,57,7.1,8.7
 2004/03/06, 6:15,10.2,56.5,6.9,8.7
 2004/03/06, 6:30,10.2,57,6.9,8.7
 2004/03/06, 6:45,10.1,57,6.9,8.7
 2004/03/06, 7:00,10,57,7,8.7
 2004/03/06, 7:15,11.2,53,7.1,8.7
 2004/03/06, 7:30,16,39,7.3,8.7
 2004/03/06, 7:45,17.1,37.5,7.3,8.8
 2004/03/06, 8:00,18.5,37,7.4,8.7
 2004/03/06, 8:15,19.4,37.5,8,8.6
 2004/03/06, 8:30,15.3,47,8.4,9.1
 2004/03/06, 8:45,14.4,49,8.4,9.1
 2004/03/06, 9:00,14.2,49,8.3,9
 2004/03/06, 9:15,14.1,48.5,8,9
 2004/03/06, 9:30,14.1,48,8.2,8.7
 2004/03/06, 9:45,14.3,49.5,8.6,8.7
 2004/03/06,10:00,14.6,51,8.8,8.7
 2004/03/06,10:15,14.4,51.5,8.8,8.7
 2004/03/06,10:30,14.1,52,8.6,8.6
 2004/03/06,10:45,14.1,52,8.6,8.6
 2004/03/06,11:00,14,52,8.6,8.7
 2004/03/06,11:15,14.1,53.5,8.5,8.6
 2004/03/06,11:30,14.9,64,8.5,8.6
 2004/03/06,11:45,15,68,8.5,8.7
 2004/03/06,12:00,16.6,68,8.5,8.6
 2004/03/06,12:15,15.7,63.5,8.5,8.6
 2004/03/06,12:30,15.3,60,8.5,8.7
 2004/03/06,12:45,15.3,57.5,8.6,8.7
 2004/03/06,13:00,15.1,55,8.6,8.7
 2004/03/06,13:15,15.4,54,8.7,8.8
 2004/03/06,13:30,15.2,53,8.6,8.9
 2004/03/06,13:45,14.6,53,8.6,8.9
 2004/03/06,14:00,14.3,52,8.5,9.4
 2004/03/06,14:15,14.3,50.5,8.3,9.3
 2004/03/06,14:30,14.6,50,8.4,9.3
 2004/03/06,14:45,15.1,50,8.4,9.3
 2004/03/06,15:00,15.1,50,8.3,9.3
 2004/03/06,15:15,14.9,51,8.2,9.3
 2004/03/06,15:30,14.7,50,8.4,9.3
 2004/03/06,15:45,14.6,50,8.2,9.3
 2004/03/06,16:00,14.6,50,8.2,9
 2004/03/06,16:15,14.4,50,8,9
 2004/03/06,16:30,14.4,50,7.9,8.9
 2004/03/06,16:45,14.4,50,7.8,8.9
 2004/03/06,17:00,14.3,50,7.8,8.9
 2004/03/06,17:15,14.9,50,7.7,9.1
 2004/03/06,17:30,14.5,50,7.6,9.1
 2004/03/06,17:45,14.4,49.5,7.5,9.1
 2004/03/06,18:00,14.3,50,7.6,9.1
 2004/03/06,18:15,14.4,51,7.4,9.1
 2004/03/06,18:30,14.6,52,7.3,9.1
 2004/03/06,18:45,14.2,53,7.2,9
 2004/03/06,19:00,14.9,62,7.2,9
 2004/03/06,19:15,15.4,74,7.2,9
 2004/03/06,19:30,15.5,73,7,9
 2004/03/06,19:45,15.3,68,7,8.9
 2004/03/06,20:00,15.4,62,6.9,8.9
 2004/03/06,20:15,15.6,59,6.8,8.9
 2004/03/06,20:30,15.7,56,6.7,8.9
 2004/03/06,20:45,14.6,57,6.7,8.9
 2004/03/06,21:00,14.1,59,6.6,8.9
 2004/03/06,21:15,13.4,61,6.6,8.7
 2004/03/06,21:30,12.9,62,6.4,8.8
 2004/03/06,21:45,12.6,61,6.3,8.8
 2004/03/06,22:00,12.3,61,6.4,8
 2004/03/06,22:15,12.1,61.5,6.2,8.5
 2004/03/06,22:30,11.8,61,6,8.7
 2004/03/06,22:45,11.6,61,6,8.7
 2004/03/06,23:00,13.3,57,5.9,8.6
 2004/03/06,23:15,17.4,47,5.8,8.6
 2004/03/06,23:30,18.4,46,5.7,8.7
 2004/03/06,23:45,18.9,43,5.7,8.6
 2004/03/07, 0:00,19,41,5.5,8.6
 2004/03/07, 0:15,18.6,42,5.6,8.6
 2004/03/07, 0:30,19,40,5.5,8.6
 2004/03/07, 0:45,19.2,39.5,5.4,8.5
 2004/03/07, 1:00,19.1,40,5.3,8.5
 2004/03/07, 1:15,18.9,39.5,5.3,8.4
 2004/03/07, 1:30,17.7,39,5.4,8.4
 2004/03/07, 1:45,13.6,46.5,5.2,8.9
 2004/03/07, 2:00,12.3,47,5.2,8.8
 2004/03/07, 2:15,11,47,5.2,8.9
 2004/03/07, 2:30,10.8,48,5,8.9
 2004/03/07, 2:45,10.4,49,4.9,8.9
 2004/03/07, 3:00,10.1,50,4.8,8.8
 2004/03/07, 3:15,9.6,50,4.8,8.8
 2004/03/07, 3:30,9.3,50,4.7,8.7
 2004/03/07, 3:45,8.9,50,4.6,8.6
 2004/03/07, 4:00,8.6,50,4.6,8.6
 2004/03/07, 4:15,8.2,50,4.4,8.6
 2004/03/07, 4:30,8,50,4.4,8.5
 2004/03/07, 4:45,7.8,50.5,4.3,8.4
 2004/03/07, 5:00,7.7,51,4.3,8.4
 2004/03/07, 5:15,7.7,52,4.2,8.4
 2004/03/07, 5:30,7.6,53,4.2,8.3
 2004/03/07, 5:45,9.6,48,4.3,8.2
 2004/03/07, 6:00,13.7,40,4.2,9
 2004/03/07, 6:15,14.6,38,4.4,8.9
 2004/03/07, 6:30,10.7,48,4.3,9.1
 2004/03/07, 6:45,10.9,56.5,4.2,8.7
 2004/03/07, 7:00,10.9,54,4.4,8.4
 2004/03/07, 7:15,10.6,52,4.4,8.7
 2004/03/07, 7:30,10.6,53,4.4,8.7
 2004/03/07, 7:45,10.5,53,4.4,8.6
 2004/03/07, 8:00,10.6,53,4.4,8.6
 2004/03/07, 8:15,10.6,54.5,4.5,8.6
 2004/03/07, 8:30,10,55,4.8,8.5
 2004/03/07, 8:45,9.3,55.5,5.2,8.5
 2004/03/07, 9:00,9.3,58,5.3,8.4
 2004/03/07, 9:15,10.1,57,6.1,8.4
 2004/03/07, 9:30,10.1,55,6.4,8.4
 2004/03/07, 9:45,10.9,62,6.4,8.3
 2004/03/07,10:00,11.1,66,6.5,8.3
 2004/03/07,10:15,11.1,65,6.5,8.3
 2004/03/07,10:30,11.3,66,6.4,8.2
 2004/03/07,10:45,10.2,57.5,6.5,8.2
 2004/03/07,11:00,10.1,54,6.5,7.7
 2004/03/07,11:15,11.5,56.5,6.4,7.8
 2004/03/07,11:30,12.2,58,6.5,8.1
 2004/03/07,11:45,12.8,57.5,6.3,8.1
 2004/03/07,12:00,12.7,55,6.6,8.1
 2004/03/07,12:15,12.6,55.5,6.4,8.1
 2004/03/07,12:30,12.5,56,6.4,8
 2004/03/07,12:45,12.2,56.5,6.2,8
 2004/03/07,13:00,12.5,57,6.1,8
 2004/03/07,13:15,12.9,57.5,6.2,8
 2004/03/07,13:30,13,58,6.2,8
 2004/03/07,13:45,13.4,58,6.2,8
 2004/03/07,14:00,13.4,59,6.2,8
 2004/03/07,14:15,13.4,57.5,6.2,8
 2004/03/07,14:30,13.4,57,6.2,7.3
 2004/03/07,14:45,13.2,56.5,6.1,8.2
 2004/03/07,15:00,12.8,55,6.3,8
 2004/03/07,15:15,12,58.5,6.1,8.4
 2004/03/07,15:30,11.5,60,6,8.4
 2004/03/07,15:45,11.1,61.5,6.1,8.4
 2004/03/07,16:00,10.9,63,6.2,8.4
 2004/03/07,16:15,10.8,63,6.1,8.4
 2004/03/07,16:30,10.6,63,6.1,8.4
 2004/03/07,16:45,10.6,63,5.9,8.3
 2004/03/07,17:00,10.5,63,6,8.3
 2004/03/07,17:15,10.5,62.5,5.8,8.3
 2004/03/07,17:30,10.5,65,5.9,8.1
 2004/03/07,17:45,10.4,64.5,5.9,8.1
 2004/03/07,18:00,10.3,64,5.8,8.1
 2004/03/07,18:15,10.2,63.5,5.8,8.1
 2004/03/07,18:30,10.3,62,5.6,8.1
 2004/03/07,18:45,10.1,64,5.6,8
 2004/03/07,19:00,11.1,83,5.4,8
 2004/03/07,19:15,9.2,70.5,5.4,8
 2004/03/07,19:30,8.8,62,5.3,7.8
 2004/03/07,19:45,10.6,63,5.2,8.4
 2004/03/07,20:00,11.4,62,5.2,8.3
 2004/03/07,20:15,11.7,61,5.2,8.2
 2004/03/07,20:30,12.1,63,5.1,8.2
 2004/03/07,20:45,12.1,67,5.1,8.1
 2004/03/07,21:00,11.3,71,5.1,8.2
 2004/03/07,21:15,11.9,61.5,5.2,8.2
 2004/03/07,21:30,16.5,47,5.1,8.3
 2004/03/07,21:45,17.5,44.5,5,8.3
 2004/03/07,22:00,18.1,43,5,8.3
 2004/03/07,22:15,18.4,42.5,5,8.2
 2004/03/07,22:30,18.7,42,4.9,8.2
 2004/03/07,22:45,18.9,42,5,8.1
 2004/03/07,23:00,19.1,41,5,8.4
 2004/03/07,23:15,16.9,45,5.1,8.4
 2004/03/07,23:30,13.6,51,5,8.5
 2004/03/07,23:45,12.6,54,4.9,8.4
 2004/03/08, 0:00,11.7,55,4.9,8.4
 2004/03/08, 0:15,11.1,56,4.8,8.3
 2004/03/08, 0:30,10.6,57,4.8,8.3
 2004/03/08, 0:45,10.1,57,4.8,8.2
 2004/03/08, 1:00,9.8,57,4.8,8.2
 2004/03/08, 1:15,9.6,58.5,4.8,8.1
 2004/03/08, 1:30,9.4,59,4.8,8.1
 2004/03/08, 1:45,9.1,60,4.7,8
 2004/03/08, 2:00,8.9,60,4.7,8
 2004/03/08, 2:15,8.6,60,4.7,7.9
 2004/03/08, 2:30,8.5,60,4.7,7.9
 2004/03/08, 2:45,8.4,60,4.7,7.9
 2004/03/08, 3:00,8.1,61,4.7,7.8
 2004/03/08, 3:15,8.1,60.5,4.7,7.8